SCP
0 0 -0 0 -0 -0 -0 -0 -0 -0 -0 -0 -0 -0 -0 -0 -0 -0 -0 -0 -0 -0 -0 -0 -0 -0 -0 -0 -0 0 0 0 0 -0 -0 0 0 0 0 0 0 -0 0
0 0 -0 -0 -0 0 0 -0 -0 -0 -0 -0 -0 -0 -0 -0 -0 -0 -0 -0 -0 -0 -0 -0 -0 -0 -0 -0 0 0 0 0 0 0 -0 -0 -0 -0 -0 -0 -0 0 -0
0 0 0 -0 -0 -0 -0 0 -0 -0 -0 -0 -0 -0 -0 -0 -0 -0 -0 -0 -0 -0 -0 -0 -0 -0 -0 -0 0 0 0 0 -0 0 0 0 -0 -0 -0 -0 -0 -0 -0
0 0 0 -0 -0 -0 0 -0 -0 -0 -0 -0 -0 -0 -0 -0 -0 -0 -0 -0 -0 -0 -0 -0 -0 -0 0 -0 -0 0 0 0 0 0 0 0 0 -0 -0 0 0 0 0
0 -0 -0 -0 0 -0 -0 -0 -0 -0 -0 -0 -0 -0 -0 -0 -0 -0 -0 -0 -0 -0 -0 -0 -0 -0 0 0 0 -0 0 0 0 0 -0 0 -0 -0 0 0 0 -0 -0
0 -0 -0 -0 0 -0 -0 0 -0 -0 -0 -0 -0 -0 0 -0 -0 -0 -0 -0 -0 -0 -0 -0 -0 0 0 -0 -0 -0 0 0 0 -0 0 -0 -0 -0 -0 -0 -0 -0 -0
-0 -0 -0 -0 -0 -0 -0 -0 -0 -0 -0 -0 -0 -0 0 0 -0 -0 -0 -0 -0 -0 0 0 -0 -0 0 -0 -0 0 0 0 -0 -0 -0 -0 -0 0 -0 0 -0 0 0
-0 -0 -0 -0 -0 -0 -0 -0 -0 -0 -0 -0 -0 -0 0 0 -0 -0 -0 -0 0 0 -0 -0 0 0 -0 -0 -0 0 0 0 -0 -0 -0 -0 0 -0 0 0 0 0 -0
-0 -0 -0 -0 -0 -0 -0 -0 -0 -0 -0 -0 0 0 0 0 -0 -0 -0 0 0 0 0 0 0 -0 -0 -0 -0 0 0 0 -0 -0 0 0 0 0 0 0 0 0 -0
-0 -0 0 0 0 0 0 -0 -0 0 0 0 0 0 -0 0 -0 -0 0 -0 -0 -0 -0 -0 -0 -0 0 0 0 -0 -0 -0 -0 -0 -0 -0 0 0 0 0 0 0 -0
0 0 -0 0 0 -0 -0 0 0 0 0 -0 0 0 0 0 -0 0 0 -0 -0 -0 -0 -0 0 0 -0 0 -0 -0 -0 0 0 0 0 0 0 0 -0 0 0 0 0
-0 -0 0 -0 0 0 0 0 0 0 0 0 0 0 0 -0 -0 0 -0 -0 0 0 0 0 0 -0 0 0 0 0 0 0 -0 0 0 0 0 0 0 0 0 0 0
0 -0 -0 0 -0 0 0 0 0 -0 0 -0 0 0 -0 -0 -0 0 0 0 0 0 0 0 0 0 0 0 -0 -0 0 0 -0 0 0 0 0 0 0 0 0 0 0
0 0 0 0 0 0 0 0 -0 -0 0 0 -0 -0 -0 0 0 0 -0 0 0 0 -0 0 -0 0 0 0 0 0 0 0 -0 0 0 0 0 0 0 0 0 0 0
0 0 -0 0 0 0 0 -0 0 0 -0 0 0 0 0 -0 0 0 0 0 0 0 0 0 0 -0 0 -0 0 -0 0 0 0 -0 0 0 0 0 0 0 0 0 0
0 0 -0 0 0 0 -0 0 0 0 0 -0 0 -0 0 -0 0 0 0 0 -0 -0 0 0 0 0 0 -0 0 0 -0 0 0 0 0 0 0 0 0 0 0 0 0
0 0 0 -0 -0 -0 0 0 0 -0 -0 -0 -0 -0 0 0 0 0 0 0 0 0 0 0 0 0 0 0 0 0 0 0 -0 0 0 0 0 0 0 0 0 0 0
0 0 0 0 -0 0 -0 -0 0 -0 -0 0 -0 0 0 0 0 0 0 0 -0 0 0 0 0 0 -0 -0 0 0 0 -0 0 0 0 0 0 0 0 0 0 1 1
0 0 0 0 -0 -0 0 0 0 0 0 0 0 0 0 0 0 0 0 0 0 0 0 0 0 0 0 0 0 0 0 0 0 -0 0 0 0 0 0 0 0 0 0
0 0 0 0 0 -0 0 -0 -0 0 0 0 0 0 0 0 0 0 -0 0 0 0 0 -0 0 0 0 0 0 -0 0 0 0 0 0 0 0 0 0 0 0 0 0
0 0 0 0 0 -0 -0 0 -0 -0 -0 0 0 -0 -0 0 0 0 -0 0 -0 0 0 0 0 0 0 0 -0 0 0 0 0 0 0 0 -0 0 0 0 0 0 0
0 0 0 0 0 -0 -0 0 0 0 -0 0 0 -0 0 -0 0 0 0 0 0 0 0 0 0 0 -0 0 0 0 0 0 0 0 -0 0 0 0 0 0 0 0 0
0 0 0 0 0 -0 0 0 0 0 -0 0 0 0 0 -0 0 0 0 -0 0 0 -0 -0 0 0 0 0 0 0 0 0 0 0 0 0 0 0 0 0 0 0 0
0 0 0 0 0 -0 0 -0 0 -0 -0 0 0 0 0 0 -0 -0 0 0 0 0 0 -0 0 0 0 0 0 0 0 0 0 -0 -0 0 0 0 0 0 0 0 0
0 0 0 0 -0 -0 -0 0 0 -0 0 0 0 0 0 0 0 0 0 0 0 0 0 0 0 0 0 -0 0 0 0 0 0 0 -0 -0 0 -0 -0 0 0 -0 -0
-0 -0 -0 0 -0 -0 -0 -0 0 0 0 0 0 0 0 -0 -0 0 -0 0 0 0 -0 0 0 0 0 -0 -0 -0 0 -0 -0 0 0 0 0 0 -0 0 -0 -0 -0
Wind_Speed_500mb
35 38 36 34 32 32 28 24 24 22 18 15 14 14 15 18 20 21 21 25 26 29 28 31 30 33 35 35 37 37 40 41 42 43 42 45 45 43 40 44 37 35 37
41 35 37 35 32 30 28 25 22 19 16 15 13 12 13 15 18 21 21 22 25 27 28 33 34 33 33 34 36 41 42 45 45 47 39 40 39 36 38 33 36 39 36
41 38 34 32 31 29 27 25 23 21 19 17 17 18 20 19 19 23 21 22 25 27 31 33 35 35 34 34 32 40 45 53 43 51 40 33 34 32 31 33 36 35 34
41 35 30 29 27 25 24 23 22 22 20 21 20 22 20 23 24 22 24 25 25 29 31 33 37 37 34 32 35 38 43 48 35 31 22 27 29 32 34 34 36 35 31
40 35 30 29 24 23 20 22 21 19 20 19 20 23 22 22 22 21 24 26 27 29 31 36 37 35 40 36 36 44 48 42 40 27 29 29 26 31 33 35 32 29 27
37 32 30 26 23 19 17 20 17 18 19 19 21 22 23 23 25 26 25 28 29 32 34 34 36 32 38 35 34 42 43 43 37 31 27 26 28 29 28 29 29 29 27
39 27 25 25 21 20 18 15 15 17 18 18 19 21 22 23 25 26 27 29 31 34 34 31 32 27 28 29 26 37 45 39 38 30 23 26 29 29 28 28 29 29 27
34 31 23 28 23 19 16 15 16 17 18 17 19 21 23 24 25 27 28 30 33 34 35 27 33 27 21 23 25 28 46 36 28 23 25 26 29 26 26 28 27 25 29
34 26 21 18 18 17 16 19 18 19 19 17 21 22 25 25 27 25 27 34 34 36 33 30 32 22 23 27 28 33 43 39 30 24 26 21 26 23 22 24 26 28 25
29 24 32 18 19 19 18 20 19 17 17 20 25 27 30 33 35 34 29 35 36 38 33 34 25 25 29 32 37 42 43 36 20 22 18 23 24 24 23 24 24 24 22
26 27 29 21 20 20 19 20 20 21 20 24 30 36 27 27 24 28 28 38 34 37 31 25 25 27 37 44 42 37 30 23 18 24 14 22 22 20 21 21 20 18 19
30 28 27 25 26 22 22 20 19 19 23 22 15 39 24 22 26 27 34 34 33 31 32 32 27 21 15 13 27 32 23 17 18 16 13 18 17 17 19 19 16 16 18
32 29 26 31 20 21 16 24 14 27 20 18 20 21 21 28 33 27 33 32 32 31 19 19 18 21 19 15 20 18 20 17 23 13 11 17 17 15 15 14 15 15 16
33 30 30 26 23 21 23 19 18 19 18 21 21 21 32 23 22 19 23 26 25 17 11 28 15 16 18 24 22 20 17 15 15 12 11 13 13 13 13 13 13 13 14
33 30 25 25 21 25 19 22 21 23 23 17 20 11 20 22 23 22 21 13 19 13 10 16 14 19 21 27 19 17 14 16 14 15 10 13 13 12 13 12 10 11 12
34 31 26 25 22 24 18 25 19 19 22 20 17 21 20 21 24 21 20 17 4 8 20 18 33 14 22 15 17 15 14 11 14 10 4 19 17 15 13 11 10 10 10
35 33 29 25 23 24 20 29 22 19 21 20 18 21 20 18 11 15 15 17 10 10 18 11 24 15 13 15 14 13 12 12 11 11 8 10 15 18 18 15 15 14 13
33 34 31 26 25 25 21 24 21 19 11 22 17 13 13 15 14 18 14 9 12 8 10 7 15 15 11 19 15 14 9 8 8 9 5 6 5 6 17 16 14 15 15
33 34 34 29 28 27 24 18 24 19 20 18 11 12 12 9 17 11 14 8 18 13 0 16 14 17 13 12 14 13 10 7 6 8 5 7 4 8 1 10 19 22 15
32 32 31 30 29 28 25 20 17 16 19 13 14 17 10 6 17 16 13 11 18 11 6 20 12 4 16 5 9 9 7 6 6 4 4 7 4 6 4 4 12 15 18
33 32 32 31 31 29 25 21 20 15 18 12 16 9 12 7 8 18 10 13 17 10 15 13 14 8 6 2 10 6 4 7 6 5 5 6 5 7 2 2 10 1 14
37 36 34 33 32 32 24 22 15 22 16 13 12 11 11 10 11 11 8 10 19 15 9 8 10 8 7 3 8 10 15 14 9 8 4 5 5 4 2 3 1 2 6
39 39 37 36 33 35 26 23 18 11 13 11 16 13 13 11 8 14 20 15 13 18 10 12 13 6 7 1 2 13 13 5 13 8 8 6 7 5 4 2 4 2 1
38 39 36 35 34 34 32 28 21 19 15 18 13 13 11 13 16 9 10 6 13 7 17 11 11 3 6 10 9 7 11 11 14 15 11 3 9 7 3 3 1 2 2
41 40 37 35 36 35 35 26 24 23 15 19 20 18 18 17 14 14 13 12 17 17 20 11 11 12 6 5 7 8 6 6 8 15 19 13 10 7 5 5 3 2 3
46 43 39 38 37 38 34 37 30 20 19 13 16 14 12 13 13 17 15 18 12 9 9 14 14 12 9 13 5 7 6 6 10 10 7 5 10 6 4 3 4 1 2
Wind_Direction_500mb
143 147 140 140 134 126 123 121 116 118 115 100 88 88 86 87 90 94 97 98 92 93 93 91 92 89 87 88 86 88 84 82 86 87 90 94 93 93 94 84 80 84 83
144 140 136 138 134 128 125 121 117 111 107 95 85 80 83 92 97 97 94 106 99 101 98 96 94 87 86 88 84 82 89 86 83 75 81 85 93 93 96 104 86 86 79
137 139 134 136 131 126 121 116 111 115 107 100 93 89 87 91 100 97 109 107 108 104 98 95 93 90 87 89 82 88 94 87 86 80 75 87 87 89 88 84 82 78 75
140 132 135 134 133 128 118 112 104 104 103 90 83 83 85 86 101 100 109 108 110 105 103 99 97 93 86 82 88 95 89 83 79 96 82 81 85 84 83 81 85 74 67
136 141 152 135 136 135 122 107 104 100 99 93 88 89 94 89 92 105 102 103 107 108 106 101 99 90 82 84 88 95 96 91 74 99 86 85 83 81 83 77 73 79 78
136 142 143 136 138 132 122 114 111 106 104 95 93 90 93 94 93 101 107 105 110 107 109 108 100 85 80 81 94 101 95 92 83 91 87 106 92 83 87 93 83 76 70
139 135 133 131 132 130 122 111 110 109 108 102 97 96 94 96 96 102 109 108 111 110 105 103 111 77 71 71 93 104 96 80 81 86 82 89 86 88 83 80 80 74 68
135 136 132 129 130 124 122 110 113 114 112 109 106 100 95 98 95 98 105 111 110 111 115 118 98 81 74 82 99 105 105 98 87 86 93 92 88 86 81 82 78 74 73
137 138 135 133 132 130 124 124 121 119 116 112 107 101 95 93 91 101 106 117 112 110 107 108 107 87 88 94 98 96 100 100 90 75 80 84 86 81 81 84 77 75 65
141 139 135 132 121 114 114 121 114 111 115 113 101 90 83 76 87 82 107 118 112 116 127 122 119 98 92 95 99 93 93 83 95 90 91 92 89 81 82 80 81 77 65
136 139 139 127 144 137 114 113 110 101 96 101 103 91 91 88 85 96 131 118 113 122 128 113 103 97 80 81 90 88 80 91 95 100 91 89 90 81 80 82 82 81 63
151 145 128 132 121 113 125 104 107 121 108 104 112 101 83 123 113 113 115 114 109 112 109 96 63 80 139 79 76 76 84 100 101 92 105 96 96 83 85 85 83 75 68
149 140 144 135 128 130 141 108 116 98 111 127 137 107 116 99 103 107 101 98 99 108 106 72 75 73 24 89 86 87 98 101 111 106 104 99 95 89 92 85 76 70 67
150 143 141 138 137 124 129 115 116 121 117 119 108 112 95 113 117 120 116 127 122 61 140 131 89 94 84 78 87 93 98 102 100 103 77 89 96 94 89 77 74 67 62
154 153 141 146 141 142 123 149 115 124 124 114 113 128 112 117 117 122 127 134 118 125 102 81 78 86 82 88 81 86 99 109 100 92 78 76 79 78 76 73 66 63 57
157 156 155 153 150 146 132 137 126 115 122 125 125 129 110 125 122 122 129 132 173 133 97 130 72 88 104 102 93 94 90 91 108 88 29 38 51 57 57 59 57 53 48
160 159 160 157 156 148 149 135 121 128 124 129 136 126 132 121 128 132 122 133 107 116 92 88 107 91 111 85 102 107 97 96 91 91 91 360 9 34 33 45 52 57 59
164 162 161 160 163 154 155 131 133 147 151 125 143 144 138 145 142 113 130 155 134 141 122 110 86 114 86 86 88 92 106 103 114 117 124 113 128 295 4 29 47 53 56
168 166 163 165 165 161 166 157 151 161 160 148 145 173 156 162 167 144 145 172 137 120 127 118 113 99 122 131 114 102 110 92 134 91 85 110 102 96 25 3 54 38 44
173 170 168 167 170 165 165 165 165 171 145 168 164 183 167 187 151 150 150 137 137 134 172 141 130 144 95 115 120 97 94 106 117 87 116 122 118 85 101 50 3 6 24
176 174 174 171 177 170 171 166 171 175 169 154 166 162 183 169 190 150 169 166 166 136 120 113 96 111 109 5 167 198 110 145 114 145 112 118 80 110 154 350 77 163 342
182 180 180 179 183 176 179 180 185 185 181 179 188 171 181 180 193 188 131 172 186 163 175 173 203 165 107 9 337 291 170 148 110 112 133 145 157 137 110 63 288 342 121
187 186 185 183 189 184 189 191 200 194 130 168 184 171 183 182 181 172 191 215 185 183 163 133 161 255 151 66 113 2 8 112 117 120 103 135 120 127 129 74 128 272 326
184 184 186 185 190 191 190 189 197 191 193 190 186 182 174 176 186 193 186 174 165 219 160 169 204 186 120 135 112 34 40 12 348 118 112 113 133 138 152 140 279 223 317
183 185 187 187 190 191 198 187 201 199 233 151 189 182 185 194 189 179 198 202 187 181 195 192 196 189 178 164 144 129 84 34 6 19 122 116 120 121 107 84 167 187 331
187 190 191 194 198 193 202 200 196 215 216 202 199 167 192 196 190 181 190 203 198 215 203 202 211 214 214 209 193 190 247 90 259 336 80 69 109 130 110 119 116 152 324
Wind_Speed_850mb
35 38 36 34 32 32 28 24 24 22 18 15 14 14 15 18 20 21 21 25 26 29 28 31 30 33 35 35 37 37 40 41 42 43 42 45 45 43 40 44 37 35 37
41 35 37 35 32 30 28 25 22 19 16 15 13 12 13 15 18 21 21 22 25 27 28 33 34 33 33 34 36 41 42 45 45 47 39 40 39 36 38 33 36 39 36
41 38 34 32 31 29 27 25 23 21 19 17 17 18 20 19 19 23 21 22 25 27 31 33 35 35 34 34 32 40 45 53 43 51 40 33 34 32 31 33 36 35 34
41 35 30 29 27 25 24 23 22 22 20 21 20 22 20 23 24 22 24 25 25 29 31 33 37 37 34 32 35 38 43 48 35 31 22 27 29 32 34 34 36 35 31
40 35 30 29 24 23 20 22 21 19 20 19 20 23 22 22 22 21 24 26 27 29 31 36 37 35 40 36 36 44 48 42 40 27 29 29 26 31 33 35 32 29 27
37 32 30 26 23 19 17 20 17 18 19 19 21 22 23 23 25 26 25 28 29 32 34 34 36 32 38 35 34 42 43 43 37 31 27 26 28 29 28 29 29 29 27
39 27 25 25 21 20 18 15 15 17 18 18 19 21 22 23 25 26 27 29 31 34 34 31 32 27 28 29 26 37 45 39 38 30 23 26 29 29 28 28 29 29 27
34 31 23 28 23 19 16 15 16 17 18 17 19 21 23 24 25 27 28 30 33 34 35 27 33 27 21 23 25 28 46 36 28 23 25 26 29 26 26 28 27 25 29
34 26 21 18 18 17 16 19 18 19 19 17 21 22 25 25 27 25 27 34 34 36 33 30 32 22 23 27 28 33 43 39 30 24 26 21 26 23 22 24 26 28 25
29 24 32 18 19 19 18 20 19 17 17 20 25 27 30 33 35 34 29 35 36 38 33 34 25 25 29 32 37 42 43 36 20 22 18 23 24 24 23 24 24 24 22
26 27 29 21 20 20 19 20 20 21 20 24 30 36 27 27 24 28 28 38 34 37 31 25 25 27 37 44 42 37 30 23 18 24 14 22 22 20 21 21 20 18 19
30 28 27 25 26 22 22 20 19 19 23 22 15 39 24 22 26 27 34 34 33 31 32 32 27 21 15 13 27 32 23 17 18 16 13 18 17 17 19 19 16 16 18
32 29 26 31 20 21 16 24 14 27 20 18 20 21 21 28 33 27 33 32 32 31 19 19 18 21 19 15 20 18 20 17 23 13 11 17 17 15 15 14 15 15 16
33 30 30 26 23 21 23 19 18 19 18 21 21 21 32 23 22 19 23 26 25 17 11 28 15 16 18 24 22 20 17 15 15 12 11 13 13 13 13 13 13 13 14
33 30 25 25 21 25 19 22 21 23 23 17 20 11 20 22 23 22 21 13 19 13 10 16 14 19 21 27 19 17 14 16 14 15 10 13 13 12 13 12 10 11 12
34 31 26 25 22 24 18 25 19 19 22 20 17 21 20 21 24 21 20 17 4 8 20 18 33 14 22 15 17 15 14 11 14 10 4 19 17 15 13 11 10 10 10
35 33 29 25 23 24 20 29 22 19 21 20 18 21 20 18 11 15 15 17 10 10 18 11 24 15 13 15 14 13 12 12 11 11 8 10 15 18 18 15 15 14 13
33 34 31 26 25 25 21 24 21 19 11 22 17 13 13 15 14 18 14 9 12 8 10 7 15 15 11 19 15 14 9 8 8 9 5 6 5 6 17 16 14 15 15
33 34 34 29 28 27 24 18 24 19 20 18 11 12 12 9 17 11 14 8 18 13 0 16 14 17 13 12 14 13 10 7 6 8 5 7 4 8 1 10 19 22 15
32 32 31 30 29 28 25 20 17 16 19 13 14 17 10 6 17 16 13 11 18 11 6 20 12 4 16 5 9 9 7 6 6 4 4 7 4 6 4 4 12 15 18
33 32 32 31 31 29 25 21 20 15 18 12 16 9 12 7 8 18 10 13 17 10 15 13 14 8 6 2 10 6 4 7 6 5 5 6 5 7 2 2 10 1 14
37 36 34 33 32 32 24 22 15 22 16 13 12 11 11 10 11 11 8 10 19 15 9 8 10 8 7 3 8 10 15 14 9 8 4 5 5 4 2 3 1 2 6
39 39 37 36 33 35 26 23 18 11 13 11 16 13 13 11 8 14 20 15 13 18 10 12 13 6 7 1 2 13 13 5 13 8 8 6 7 5 4 2 4 2 1
38 39 36 35 34 34 32 28 21 19 15 18 13 13 11 13 16 9 10 6 13 7 17 11 11 3 6 10 9 7 11 11 14 15 11 3 9 7 3 3 1 2 2
41 40 37 35 36 35 35 26 24 23 15 19 20 18 18 17 14 14 13 12 17 17 20 11 11 12 6 5 7 8 6 6 8 15 19 13 10 7 5 5 3 2 3
46 43 39 38 37 38 34 37 30 20 19 13 16 14 12 13 13 17 15 18 12 9 9 14 14 12 9 13 5 7 6 6 10 10 7 5 10 6 4 3 4 1 2
Wind_Direction_850mb
143 147 140 140 134 126 123 121 116 118 115 100 88 88 86 87 90 94 97 98 92 93 93 91 92 89 87 88 86 88 84 82 86 87 90 94 93 93 94 84 80 84 83
144 140 136 138 134 128 125 121 117 111 107 95 85 80 83 92 97 97 94 106 99 101 98 96 94 87 86 88 84 82 89 86 83 75 81 85 93 93 96 104 86 86 79
137 139 134 136 131 126 121 116 111 115 107 100 93 89 87 91 100 97 109 107 108 104 98 95 93 90 87 89 82 88 94 87 86 80 75 87 87 89 88 84 82 78 75
140 132 135 134 133 128 118 112 104 104 103 90 83 83 85 86 101 100 109 108 110 105 103 99 97 93 86 82 88 95 89 83 79 96 82 81 85 84 83 81 85 74 67
136 141 152 135 136 135 122 107 104 100 99 93 88 89 94 89 92 105 102 103 107 108 106 101 99 90 82 84 88 95 96 91 74 99 86 85 83 81 83 77 73 79 78
136 142 143 136 138 132 122 114 111 106 104 95 93 90 93 94 93 101 107 105 110 107 109 108 100 85 80 81 94 101 95 92 83 91 87 106 92 83 87 93 83 76 70
139 135 133 131 132 130 122 111 110 109 108 102 97 96 94 96 96 102 109 108 111 110 105 103 111 77 71 71 93 104 96 80 81 86 82 89 86 88 83 80 80 74 68
135 136 132 129 130 124 122 110 113 114 112 109 106 100 95 98 95 98 105 111 110 111 115 118 98 81 74 82 99 105 105 98 87 86 93 92 88 86 81 82 78 74 73
137 138 135 133 132 130 124 124 121 119 116 112 107 101 95 93 91 101 106 117 112 110 107 108 107 87 88 94 98 96 100 100 90 75 80 84 86 81 81 84 77 75 65
141 139 135 132 121 114 114 121 114 111 115 113 101 90 83 76 87 82 107 118 112 116 127 122 119 98 92 95 99 93 93 83 95 90 91 92 89 81 82 80 81 77 65
136 139 139 127 144 137 114 113 110 101 96 101 103 91 91 88 85 96 131 118 113 122 128 113 103 97 80 81 90 88 80 91 95 100 91 89 90 81 80 82 82 81 63
151 145 128 132 121 113 125 104 107 121 108 104 112 101 83 123 113 113 115 114 109 112 109 96 63 80 139 79 76 76 84 100 101 92 105 96 96 83 85 85 83 75 68
149 140 144 135 128 130 141 108 116 98 111 127 137 107 116 99 103 107 101 98 99 108 106 72 75 73 24 89 86 87 98 101 111 106 104 99 95 89 92 85 76 70 67
150 143 141 138 137 124 129 115 116 121 117 119 108 112 95 113 117 120 116 127 122 61 140 131 89 94 84 78 87 93 98 102 100 103 77 89 96 94 89 77 74 67 62
154 153 141 146 141 142 123 149 115 124 124 114 113 128 112 117 117 122 127 134 118 125 102 81 78 86 82 88 81 86 99 109 100 92 78 76 79 78 76 73 66 63 57
157 156 155 153 150 146 132 137 126 115 122 125 125 129 110 125 122 122 129 132 173 133 97 130 72 88 104 102 93 94 90 91 108 88 29 38 51 57 57 59 57 53 48
160 159 160 157 156 148 149 135 121 128 124 129 136 126 132 121 128 132 122 133 107 116 92 88 107 91 111 85 102 107 97 96 91 91 91 360 9 34 33 45 52 57 59
164 162 161 160 163 154 155 131 133 147 151 125 143 144 138 145 142 113 130 155 134 141 122 110 86 114 86 86 88 92 106 103 114 117 124 113 128 295 4 29 47 53 56
168 166 163 165 165 161 166 157 151 161 160 148 145 173 156 162 167 144 145 172 137 120 127 118 113 99 122 131 114 102 110 92 134 91 85 110 102 96 25 3 54 38 44
173 170 168 167 170 165 165 165 165 171 145 168 164 183 167 187 151 150 150 137 137 134 172 141 130 144 95 115 120 97 94 106 117 87 116 122 118 85 101 50 3 6 24
176 174 174 171 177 170 171 166 171 175 169 154 166 162 183 169 190 150 169 166 166 136 120 113 96 111 109 5 167 198 110 145 114 145 112 118 80 110 154 350 77 163 342
182 180 180 179 183 176 179 180 185 185 181 179 188 171 181 180 193 188 131 172 186 163 175 173 203 165 107 9 337 291 170 148 110 112 133 145 157 137 110 63 288 342 121
187 186 185 183 189 184 189 191 200 194 130 168 184 171 183 182 181 172 191 215 185 183 163 133 161 255 151 66 113 2 8 112 117 120 103 135 120 127 129 74 128 272 326
184 184 186 185 190 191 190 189 197 191 193 190 186 182 174 176 186 193 186 174 165 219 160 169 204 186 120 135 112 34 40 12 348 118 112 113 133 138 152 140 279 223 317
183 185 187 187 190 191 198 187 201 199 233 151 189 182 185 194 189 179 198 202 187 181 195 192 196 189 178 164 144 129 84 34 6 19 122 116 120 121 107 84 167 187 331
187 190 191 194 198 193 202 200 196 215 216 202 199 167 192 196 190 181 190 203 198 215 203 202 211 214 214 209 193 190 247 90 259 336 80 69 109 130 110 119 116 152 324